Time,TemperatureF,DewpointF,PressureIn,WindDirection,WindDirectionDegrees,WindSpeedMPH,WindSpeedGustMPH,Humidity,HourlyPrecipIn,Conditions,Clouds,dailyrainin,SoftwareType,DateUTC
2013-01-26 00:00:00,21.0,-99.9,30.04,North,350,15.0,16.0,-999,-99.99,,,-99.99,,2013-01-26 05:00:00,
2013-01-26 00:23:00,21.0,-99.9,30.04,North,350,15.0,16.0,-999,-99.99,,,-99.99,,2013-01-26 05:23:00,
2013-01-26 00:33:00,21.0,-99.9,30.04,North,350,15.0,16.0,-999,-99.99,,,-99.99,,2013-01-26 05:33:00,
2013-01-26 00:42:00,21.0,-99.9,30.04,North,350,15.0,16.0,-999,-99.99,,,-99.99,,2013-01-26 05:42:00,
2013-01-26 00:53:00,21.0,-99.9,30.04,North,350,15.0,16.0,-999,-99.99,,,-99.99,,2013-01-26 05:53:00,
2013-01-26 01:00:00,20.0,-99.9,30.02,North,350,15.0,16.0,-999,-99.99,,,-99.99,,2013-01-26 06:00:00,
2013-01-26 01:22:00,20.0,-99.9,30.02,North,350,15.0,16.0,-999,-99.99,,,-99.99,,2013-01-26 06:22:00,
2013-01-26 01:32:00,20.0,-99.9,30.02,North,350,15.0,16.0,-999,-99.99,,,-99.99,,2013-01-26 06:32:00,
2013-01-26 01:42:00,20.0,-99.9,30.02,North,350,15.0,16.0,-999,-99.99,,,-99.99,,2013-01-26 06:42:00,
2013-01-26 01:52:00,20.0,-99.9,30.02,North,350,15.0,16.0,-999,-99.99,,,-99.99,,2013-01-26 06:52:00,
2013-01-26 02:00:00,20.0,-99.9,30.01,North,350,14.0,15.0,-999,-99.99,,,-99.99,,2013-01-26 07:00:00,
2013-01-26 02:22:00,20.0,-99.9,30.01,North,350,14.0,15.0,-999,-99.99,,,-99.99,,2013-01-26 07:22:00,
2013-01-26 02:33:00,20.0,-99.9,30.01,North,350,14.0,15.0,-999,-99.99,,,-99.99,,2013-01-26 07:33:00,
2013-01-26 02:42:00,20.0,-99.9,30.01,North,350,14.0,15.0,-999,-99.99,,,-99.99,,2013-01-26 07:42:00,
2013-01-26 02:52:00,20.0,-99.9,30.01,North,350,14.0,15.0,-999,-99.99,,,-99.99,,2013-01-26 07:52:00,
2013-01-26 03:00:00,19.0,-99.9,30.01,North,350,14.0,16.0,-999,-99.99,,,-99.99,,2013-01-26 08:00:00,
2013-01-26 03:22:00,19.0,-99.9,30.01,North,350,14.0,16.0,-999,-99.99,,,-99.99,,2013-01-26 08:22:00,
2013-01-26 03:32:00,19.0,-99.9,30.01,North,350,14.0,16.0,-999,-99.99,,,-99.99,,2013-01-26 08:32:00,
2013-01-26 03:42:00,19.0,-99.9,30.01,North,350,14.0,16.0,-999,-99.99,,,-99.99,,2013-01-26 08:42:00,
2013-01-26 03:54:00,19.0,-99.9,30.01,North,350,14.0,16.0,-999,-99.99,,,-99.99,,2013-01-26 08:54:00,
2013-01-26 04:00:00,19.0,-99.9,29.99,NNW,340,16.0,20.0,-999,-99.99,,,-99.99,,2013-01-26 09:00:00,
2013-01-26 04:22:00,19.0,-99.9,29.99,NNW,340,16.0,20.0,-999,-99.99,,,-99.99,,2013-01-26 09:22:00,
2013-01-26 04:32:00,19.0,-99.9,29.99,NNW,340,16.0,20.0,-999,-99.99,,,-99.99,,2013-01-26 09:32:00,
2013-01-26 04:42:00,19.0,-99.9,29.99,NNW,340,16.0,20.0,-999,-99.99,,,-99.99,,2013-01-26 09:42:00,
2013-01-26 04:52:00,19.0,-99.9,29.99,NNW,340,16.0,20.0,-999,-99.99,,,-99.99,,2013-01-26 09:52:00,
2013-01-26 05:00:00,19.0,-99.9,30.00,NNW,330,15.0,16.0,-999,-99.99,,,-99.99,,2013-01-26 10:00:00,
2013-01-26 05:22:00,19.0,-99.9,30.00,NNW,330,15.0,16.0,-999,-99.99,,,-99.99,,2013-01-26 10:22:00,
2013-01-26 05:32:00,19.0,-99.9,30.00,NNW,330,15.0,16.0,-999,-99.99,,,-99.99,,2013-01-26 10:32:00,
2013-01-26 05:43:00,19.0,-99.9,30.00,NNW,330,15.0,16.0,-999,-99.99,,,-99.99,,2013-01-26 10:43:00,
2013-01-26 05:52:00,19.0,-99.9,30.00,NNW,330,15.0,16.0,-999,-99.99,,,-99.99,,2013-01-26 10:52:00,
2013-01-26 06:00:00,18.0,-99.9,30.01,North,350,17.0,20.0,-999,-99.99,,,-99.99,,2013-01-26 11:00:00,
2013-01-26 06:22:00,18.0,-99.9,30.01,North,350,17.0,20.0,-999,-99.99,,,-99.99,,2013-01-26 11:22:00,
2013-01-26 06:32:00,18.0,-99.9,30.01,North,350,17.0,20.0,-999,-99.99,,,-99.99,,2013-01-26 11:32:00,
2013-01-26 06:42:00,18.0,-99.9,30.01,North,350,17.0,20.0,-999,-99.99,,,-99.99,,2013-01-26 11:42:00,
2013-01-26 06:53:00,18.0,-99.9,30.01,North,350,17.0,20.0,-999,-99.99,,,-99.99,,2013-01-26 11:53:00,
2013-01-26 07:00:00,17.0,-99.9,30.02,North,350,17.0,20.0,-999,-99.99,,,-99.99,,2013-01-26 12:00:00,
2013-01-26 07:23:00,17.0,-99.9,30.02,North,350,17.0,20.0,-999,-99.99,,,-99.99,,2013-01-26 12:23:00,
2013-01-26 07:33:00,17.0,-99.9,30.02,North,350,17.0,20.0,-999,-99.99,,,-99.99,,2013-01-26 12:33:00,
2013-01-26 07:42:00,17.0,-99.9,30.02,North,350,17.0,20.0,-999,-99.99,,,-99.99,,2013-01-26 12:42:00,
2013-01-26 07:53:00,17.0,-99.9,30.02,North,350,17.0,20.0,-999,-99.99,,,-99.99,,2013-01-26 12:53:00,
2013-01-26 08:00:00,18.0,-99.9,30.04,NNW,340,20.0,22.0,-999,-99.99,,,-99.99,,2013-01-26 13:00:00,
2013-01-26 08:22:00,18.0,-99.9,30.04,NNW,340,20.0,22.0,-999,-99.99,,,-99.99,,2013-01-26 13:22:00,
2013-01-26 08:33:00,18.0,-99.9,30.04,NNW,340,20.0,22.0,-999,-99.99,,,-99.99,,2013-01-26 13:33:00,
2013-01-26 08:42:00,18.0,-99.9,30.04,NNW,340,20.0,22.0,-999,-99.99,,,-99.99,,2013-01-26 13:42:00,
2013-01-26 08:53:00,18.0,-99.9,30.04,NNW,340,20.0,22.0,-999,-99.99,,,-99.99,,2013-01-26 13:53:00,
2013-01-26 09:00:00,17.0,-99.9,30.04,NNW,330,18.0,23.0,-999,-99.99,,,-99.99,,2013-01-26 14:00:00,
2013-01-26 09:22:00,17.0,-99.9,30.04,NNW,330,18.0,23.0,-999,-99.99,,,-99.99,,2013-01-26 14:22:00,
2013-01-26 09:32:00,17.0,-99.9,30.04,NNW,330,18.0,23.0,-999,-99.99,,,-99.99,,2013-01-26 14:32:00,
2013-01-26 09:43:00,17.0,-99.9,30.04,NNW,330,18.0,23.0,-999,-99.99,,,-99.99,,2013-01-26 14:43:00,
2013-01-26 09:53:00,17.0,-99.9,30.04,NNW,330,18.0,23.0,-999,-99.99,,,-99.99,,2013-01-26 14:53:00,
2013-01-26 10:00:00,18.0,-99.9,30.06,NW,320,18.0,21.0,-999,-99.99,,,-99.99,,2013-01-26 15:00:00,
2013-01-26 10:22:00,18.0,-99.9,30.06,NW,320,18.0,21.0,-999,-99.99,,,-99.99,,2013-01-26 15:22:00,
2013-01-26 10:33:00,18.0,-99.9,30.06,NW,320,18.0,21.0,-999,-99.99,,,-99.99,,2013-01-26 15:33:00,
2013-01-26 10:43:00,18.0,-99.9,30.06,NW,320,18.0,21.0,-999,-99.99,,,-99.99,,2013-01-26 15:43:00,
2013-01-26 10:53:00,18.0,-99.9,30.06,NW,320,18.0,21.0,-999,-99.99,,,-99.99,,2013-01-26 15:53:00,
2013-01-26 11:00:00,19.0,-99.9,30.04,NNW,330,18.0,22.0,-999,-99.99,,,-99.99,,2013-01-26 16:00:00,
2013-01-26 11:22:00,19.0,-99.9,30.04,NNW,330,18.0,22.0,-999,-99.99,,,-99.99,,2013-01-26 16:22:00,
2013-01-26 11:33:00,19.0,-99.9,30.04,NNW,330,18.0,22.0,-999,-99.99,,,-99.99,,2013-01-26 16:33:00,
2013-01-26 11:43:00,19.0,-99.9,30.04,NNW,330,18.0,22.0,-999,-99.99,,,-99.99,,2013-01-26 16:43:00,
2013-01-26 11:53:00,19.0,-99.9,30.04,NNW,330,18.0,22.0,-999,-99.99,,,-99.99,,2013-01-26 16:53:00,
2013-01-26 12:00:00,21.0,-99.9,30.03,NW,320,16.0,18.0,-999,-99.99,,,-99.99,,2013-01-26 17:00:00,
2013-01-26 12:23:00,21.0,-99.9,30.03,NW,320,16.0,18.0,-999,-99.99,,,-99.99,,2013-01-26 17:23:00,
2013-01-26 12:33:00,21.0,-99.9,30.03,NW,320,16.0,18.0,-999,-99.99,,,-99.99,,2013-01-26 17:33:00,
2013-01-26 12:42:00,21.0,-99.9,30.03,NW,320,16.0,18.0,-999,-99.99,,,-99.99,,2013-01-26 17:42:00,
2013-01-26 12:53:00,21.0,-99.9,30.03,NW,320,16.0,18.0,-999,-99.99,,,-99.99,,2013-01-26 17:53:00,
2013-01-26 13:00:00,22.0,-99.9,30.02,NW,310,16.0,20.0,-999,-99.99,,,-99.99,,2013-01-26 18:00:00,
2013-01-26 13:22:00,22.0,-99.9,30.02,NW,310,16.0,20.0,-999,-99.99,,,-99.99,,2013-01-26 18:22:00,
2013-01-26 13:33:00,22.0,-99.9,30.02,NW,310,16.0,20.0,-999,-99.99,,,-99.99,,2013-01-26 18:33:00,
2013-01-26 13:42:00,22.0,-99.9,30.02,NW,310,16.0,20.0,-999,-99.99,,,-99.99,,2013-01-26 18:42:00,
2013-01-26 13:53:00,22.0,-99.9,30.02,NW,310,16.0,20.0,-999,-99.99,,,-99.99,,2013-01-26 18:53:00,
2013-01-26 14:00:00,24.0,-99.9,30.03,WNW,300,15.0,17.0,-999,-99.99,,,-99.99,,2013-01-26 19:00:00,
2013-01-26 14:23:00,24.0,-99.9,30.03,WNW,300,15.0,17.0,-999,-99.99,,,-99.99,,2013-01-26 19:23:00,
2013-01-26 14:33:00,24.0,-99.9,30.03,WNW,300,15.0,17.0,-999,-99.99,,,-99.99,,2013-01-26 19:33:00,
2013-01-26 14:43:00,24.0,-99.9,30.03,WNW,300,15.0,17.0,-999,-99.99,,,-99.99,,2013-01-26 19:43:00,
2013-01-26 14:53:00,24.0,-99.9,30.03,WNW,300,15.0,17.0,-999,-99.99,,,-99.99,,2013-01-26 19:53:00,
2013-01-26 15:00:00,25.0,-99.9,30.04,WNW,300,17.0,20.0,-999,-99.99,,,-99.99,,2013-01-26 20:00:00,
2013-01-26 15:22:00,25.0,-99.9,30.04,WNW,300,17.0,20.0,-999,-99.99,,,-99.99,,2013-01-26 20:22:00,
2013-01-26 15:32:00,25.0,-99.9,30.04,WNW,300,17.0,20.0,-999,-99.99,,,-99.99,,2013-01-26 20:32:00,
2013-01-26 15:42:00,25.0,-99.9,30.04,WNW,300,17.0,20.0,-999,-99.99,,,-99.99,,2013-01-26 20:42:00,
2013-01-26 15:52:00,25.0,-99.9,30.04,WNW,300,17.0,20.0,-999,-99.99,,,-99.99,,2013-01-26 20:52:00,
2013-01-26 16:00:00,25.0,-99.9,30.06,NW,310,18.0,22.0,-999,-99.99,,,-99.99,,2013-01-26 21:00:00,
2013-01-26 16:23:00,25.0,-99.9,30.06,NW,310,18.0,22.0,-999,-99.99,,,-99.99,,2013-01-26 21:23:00,
2013-01-26 16:32:00,25.0,-99.9,30.06,NW,310,18.0,22.0,-999,-99.99,,,-99.99,,2013-01-26 21:32:00,
2013-01-26 16:43:00,25.0,-99.9,30.06,NW,310,18.0,22.0,-999,-99.99,,,-99.99,,2013-01-26 21:43:00,
2013-01-26 16:52:00,25.0,-99.9,30.06,NW,310,18.0,22.0,-999,-99.99,,,-99.99,,2013-01-26 21:52:00,
2013-01-26 17:00:00,25.0,-99.9,30.09,NW,320,25.0,26.0,-999,-99.99,,,-99.99,,2013-01-26 22:00:00,
2013-01-26 17:22:00,25.0,-99.9,30.09,NW,320,25.0,26.0,-999,-99.99,,,-99.99,,2013-01-26 22:22:00,
2013-01-26 17:32:00,25.0,-99.9,30.09,NW,320,25.0,26.0,-999,-99.99,,,-99.99,,2013-01-26 22:32:00,
2013-01-26 17:42:00,25.0,-99.9,30.09,NW,320,25.0,26.0,-999,-99.99,,,-99.99,,2013-01-26 22:42:00,
2013-01-26 17:52:00,25.0,-99.9,30.09,NW,320,25.0,26.0,-999,-99.99,,,-99.99,,2013-01-26 22:52:00,
2013-01-26 18:00:00,25.0,-99.9,30.11,NW,310,26.0,30.0,-999,-99.99,,,-99.99,,2013-01-26 23:00:00,
2013-01-26 18:22:00,25.0,-99.9,30.11,NW,310,26.0,30.0,-999,-99.99,,,-99.99,,2013-01-26 23:22:00,
2013-01-26 18:33:00,25.0,-99.9,30.11,NW,310,26.0,30.0,-999,-99.99,,,-99.99,,2013-01-26 23:33:00,
2013-01-26 18:42:00,25.0,-99.9,30.11,NW,310,26.0,30.0,-999,-99.99,,,-99.99,,2013-01-26 23:42:00,
2013-01-26 18:52:00,25.0,-99.9,30.11,NW,310,26.0,30.0,-999,-99.99,,,-99.99,,2013-01-26 23:52:00,
2013-01-26 19:00:00,24.0,-99.9,30.13,NW,320,28.0,31.0,-999,-99.99,,,-99.99,,2013-01-27 00:00:00,
2013-01-26 19:22:00,24.0,-99.9,30.13,NW,320,28.0,31.0,-999,-99.99,,,-99.99,,2013-01-27 00:22:00,
2013-01-26 19:32:00,24.0,-99.9,30.13,NW,320,28.0,31.0,-999,-99.99,,,-99.99,,2013-01-27 00:32:00,
2013-01-26 19:42:00,24.0,-99.9,30.13,NW,320,28.0,31.0,-999,-99.99,,,-99.99,,2013-01-27 00:42:00,
2013-01-26 19:52:00,24.0,-99.9,30.13,NW,320,28.0,31.0,-999,-99.99,,,-99.99,,2013-01-27 00:52:00,
2013-01-26 20:00:00,22.0,-99.9,30.17,NW,320,31.0,36.0,-999,-99.99,,,-99.99,,2013-01-27 01:00:00,
2013-01-26 20:22:00,22.0,-99.9,30.17,NW,320,31.0,36.0,-999,-99.99,,,-99.99,,2013-01-27 01:22:00,
2013-01-26 20:32:00,22.0,-99.9,30.17,NW,320,31.0,36.0,-999,-99.99,,,-99.99,,2013-01-27 01:32:00,
2013-01-26 20:42:00,22.0,-99.9,30.17,NW,320,31.0,36.0,-999,-99.99,,,-99.99,,2013-01-27 01:42:00,
2013-01-26 20:52:00,22.0,-99.9,30.17,NW,320,31.0,36.0,-999,-99.99,,,-99.99,,2013-01-27 01:52:00,
2013-01-26 21:00:00,21.0,-99.9,30.18,NW,320,33.0,37.0,-999,-99.99,,,-99.99,,2013-01-27 02:00:00,
2013-01-26 21:22:00,21.0,-99.9,30.18,NW,320,33.0,37.0,-999,-99.99,,,-99.99,,2013-01-27 02:22:00,
2013-01-26 21:32:00,21.0,-99.9,30.18,NW,320,33.0,37.0,-999,-99.99,,,-99.99,,2013-01-27 02:32:00,
2013-01-26 21:42:00,21.0,-99.9,30.18,NW,320,33.0,37.0,-999,-99.99,,,-99.99,,2013-01-27 02:42:00,
2013-01-26 21:52:00,21.0,-99.9,30.18,NW,320,33.0,37.0,-999,-99.99,,,-99.99,,2013-01-27 02:52:00,
2013-01-26 22:00:00,20.0,-99.9,30.19,NNW,330,36.0,41.0,-999,-99.99,,,-99.99,,2013-01-27 03:00:00,
2013-01-26 22:32:00,20.0,-99.9,30.19,NNW,330,36.0,41.0,-999,-99.99,,,-99.99,,2013-01-27 03:32:00,
2013-01-26 22:42:00,20.0,-99.9,30.19,NNW,330,36.0,41.0,-999,-99.99,,,-99.99,,2013-01-27 03:42:00,
2013-01-26 22:52:00,20.0,-99.9,30.19,NNW,330,36.0,41.0,-999,-99.99,,,-99.99,,2013-01-27 03:52:00,
2013-01-26 23:00:00,20.0,-99.9,30.24,NW,320,29.0,33.0,-999,-99.99,,,-99.99,,2013-01-27 04:00:00,
2013-01-26 23:22:00,20.0,-99.9,30.24,NW,320,29.0,33.0,-999,-99.99,,,-99.99,,2013-01-27 04:22:00,
2013-01-26 23:32:00,20.0,-99.9,30.24,NW,320,29.0,33.0,-999,-99.99,,,-99.99,,2013-01-27 04:32:00,
2013-01-26 23:42:00,20.0,-99.9,30.24,NW,320,29.0,33.0,-999,-99.99,,,-99.99,,2013-01-27 04:42:00,
2013-01-26 23:52:00,20.0,-99.9,30.24,NW,320,29.0,33.0,-999,-99.99,,,-99.99,,2013-01-27 04:52:00,